Location: Table Mountain
(47.2500°N, 120.5778°W)
Time: 22:35:13
(UTC-08:00)

Tiangong 1 - Pass Details

Date: 16 October 2017
Orbit: 275 x 302 km, 42.8° (Epoch: 14 December)

Event Time Altitude Azimuth Distance (km) Brightness Sun altitude
Rises 18:41:23 0° 265° (W) 2,099 7.7 -5.7°
Reaches altitude 10° 18:43:58 10° 240° (WSW) 1,247 4.9 -6.2°
Maximum altitude 18:45:38 15° 203° (SSW) 1,010 3.6 -6.4°
Drops below altitude 10° 18:47:17 10° 166° (SSE) 1,225 3.5 -6.7°
Enters shadow 18:50:05 -1° 139° (SE) 2,143 4.5 -7.2°
